Regional Weather Roundup
Issued by NWS Kansas City/Pleasant Hill, MO

Home | Current Version | Previous Version | Graphics & Text | Print | Product List | Glossary Off
Versions: 1 2 3 4 5 6 7 8 9 10 11 12 13 14 15 16 17 18 19 20 21 22 23 24 25 26 27 28 29 30 31 32 33 34 35 36 37 38 39 40 41 42 43 44 45 46 47 48 49 50

000
ASUS43 KEAX 220810
RWREAX

WEATHER ROUNDUP FOR EASTERN KANSAS AND NORTHWEST MISSOURI
NATIONAL WEATHER SERVICE KANSAS CITY/PLEASANT HILL MO
300 AM CDT TUE JUL 22 2014

KSZ040-057-103>105-MOZ028-029-037-043-220900-
...KANSAS CITY METROPOLITAN AREA...

CITY           SKY/WX    TMP DP  RH WIND       PRES   REMARKS
K.C. INTL      PTCLDY    79  74  84 S13       29.98S
K.C. DOWNTOWN  CLEAR     81  74  79 S9        29.97S
LEES SUMMIT    CLEAR     78  73  84 S7        30.00F
OLATHE - IXD   CLEAR     76  73  91 S9        30.00S
OLATHE - OJC   CLEAR     76  73  91 S6        29.99S
LAWRENCE       CLEAR     79  74  84 S7        29.98S HAZE

$$

MOZ001>008-011>017-020>025-030>033-038>040-044>046-053-054-220900-
...NORTHERN AND CENTRAL MISSOURI...

CITY           SKY/WX    TMP DP  RH WIND       PRES   REMARKS
ST. JOSEPH     CLEAR     79  74  84 S5        29.95S
MOSBY          SUNNY     77  73  88 SE7       29.98S
WHITEMAN AFB   PTCLDY    73  60  64 S7        30.02F
CLINTON        PTCLDY    73  70  88 S7        30.03F
SEDALIA        CLEAR     73  67  81 S8        30.04F
WARSAW         NOT AVBL
MARSHALL       CLEAR     75  72  88 S7        30.02F
CHILLICOTHE      N/A     78  72  81 S6        29.99F
MOBERLY        CLEAR     75  66  73 S8        30.04F
KIRKSVILLE     PTCLDY    74  68  81 S9        30.02F

$$

MOZ041-047>049-056>058-063>065-088>090-097-220900-
...EASTERN AND SOUTHERN MISSOURI...

CITY           SKY/WX    TMP DP  RH WIND       PRES   REMARKS
ST. LOUIS INTL CLEAR     75  66  73 SW5       30.08R
SPIRIT OF STL  CLEAR     68  65  90 CALM      30.06F
COLUMBIA       CLEAR     71  67  87 S7        30.07R
JEFFERSON CITY CLEAR     73  66  78 SE5       30.06R
MEXICO         CLEAR    N/A N/A N/A S6        30.06S
HANNIBAL       CLEAR     73  64  73 S9        30.04F
ROLLA          CLEAR     69  64  84 S9        30.08S
LEBANON        CLEAR     70  66  88 S5        30.09F
OSAGE BEACH    CLEAR     72  64  78 SE3       30.07S
SPRINGFIELD    PTCLDY    72  66  81 S10       30.07F
BRANSON        CLOUDY    68  68 100 CALM      30.10F
NEVADA         PTCLDY    70  70 100 S6        30.04S FOG
JOPLIN         PTCLDY    74  70  87 S8        30.06S
WEST PLAINS    CLEAR     67  62  84 CALM      30.11S

$$

IAZ060-094-KSZ022-034>040-054-083-096-NEZ052-066-093-220900-
...KANSAS...SOUTHEAST NEBRASKA AND IOWA...

CITY           SKY/WX    TMP DP  RH WIND       PRES   REMARKS
TOPEKA         PTCLDY    81  75  82 VRB5      29.97S
MANHATTAN      PTCLDY    79  73  82 S5        29.96S
EMPORIA        MOCLDY    76  74  93 S12       30.00R FOG
CHANUTE        MOCLDY    76  72  87 S9        30.02F
WICHITA        CLOUDY    79  74  84 S8        30.00S
OMAHA          CLOUDY    87  71  58 S5        29.88S HX  93
LINCOLN        MOCLDY    85  70  60 S14       29.91F
FALLS CITY     PTCLDY    79  73  82 SW9       29.93R
LAMONI         MOCLDY    78  74  87 S10       29.96S
DES MOINES     MOCLDY    83  74  74 S13       29.90F

$$




USA.gov is the U.S. government's official web portal to all federal, state and local government web resources and services.